Location: Basse Occidentale du Courleau
(48.3833°N, 4.8333°W)
Time: 04:29:00
(UTC+00:00)

USA 245 - Pass Details

Date: 05 July 2020
Orbit: 270 x 1010 km, 97.9° (Epoch: 10 August)

Event Time Altitude Azimuth Distance (km) Brightness Sun altitude
Exits shadow 21:07:52 - 157° (SSE) 1,757 5.3 -6.5°
Reaches altitude 10° 21:08:21 10° 156° (SSE) 1,554 5.0 -6.6°
Maximum altitude 21:11:38 68° 73° (ENE) 556 3.2 -6.9°
Drops below altitude 10° 21:15:51 10° 350° (N) 1,980 7.1 -7.4°
Sets 21:18:21 0° 349° (NNW) 3,031 8.2 -7.7°
